Sign-in with your pilot id or email, or register

ICAO: VIDP Name / Country: New Delhi / Palam / India
Latitude: 28.5665 Longitude: 77.1031
Total Arrivals:
Strict Standards: Non-static method AirportData::getarrflights() should not be called statically, assuming $this from incompatible context in /var/www/customers/vh-7192/web/home/phpvms/core/templates/airport_info.tpl on line 18
2
Total Departures:
Strict Standards: Non-static method AirportData::getdeptflights() should not be called statically, assuming $this from incompatible context in /var/www/customers/vh-7192/web/home/phpvms/core/templates/airport_info.tpl on line 21
2
Latest Arrival: MTA5PM (VABB-VIDP) Tibor Berces Latest Departure: MTA5PM (VIDP-VGZR) Tibor Berces
Metar: VIDP 161730Z 00000KT 0600 R28/2000 R29/1800 MIFG NSC 10/09 Q1012 NOSIG
More info

Charts for VIDP


NOTAM


Warning: file_get_contents(http://api.vateud.net/notams/VIDP.json): failed to open stream: HTTP request failed! HTTP/1.1 404 Not Found in /var/www/customers/vh-7192/web/home/phpvms/core/common/NOTAMSData.class.php on line 18

Warning: Invalid argument supplied for foreach() in /var/www/customers/vh-7192/web/home/phpvms/core/common/NOTAMSData.class.php on line 22

New Delhi / Palam